Погода в Светлом

Россия / Томская область     56°34′42″N   85°06′11″E
темп.,
°C
ветер,
м/с
пор.,
м/с
влажн.,
%
обл.,
%
осадки,
мм/ч
давл.,
гПа
погр.,
м
11 мая, вт
вт1101:00+8всв236611 0.0 102063
04:00+6св247257 0.0 101963
07:00+8св310675 0.0 1019307
10:00+15св584411 0.0 1019787
13:00+18св5733100 0.0 10183044
16:00+18св463597 0.0 10182458
19:00+17с574158 0.0 10181887
22:00+12с412605 0.0 1020332
12 мая, ср
ср1201:00+9ссв386936 0.1 1020177
04:00+8с237639 0.0 101955
07:00+9ссв136947 0.0 1020121
10:00+16ссв234766 0.0 1019693
13:00+18св223799 0.0 10182236
16:00+18сз2138100 0.0 10171915
19:00+17ссз224388 0.0 10171178
22:00+12в11595 0.0 101710
13 мая, чт
чт1301:00+10ююв226715 0.0 101616
04:00+9юв117416 0.0 101513
07:00+10ю126820 0.0 101684
10:00+16юз234628 0.0 1014898
13:00+18зюз3435100 0.0 10132323
16:00+18ю033598 0.0 10122042
19:00+15ссз455599 0.1 10131090
22:00+11ссз376953 0.2 1014384
14 мая, пт
пт1401:00+8зсз228265 0.2 101432
04:00+6зсз2783100 0.0 1013155
07:00+8зсз41077100 0.2 1014770
10:00+5ссз697097 0.3 10161271
13:00+8ссз794899 0.3 10181841
16:00+11ссз593171 0.0 10192353
19:00+10ссз583229 0.0 10212134
22:00+6зсз2646100 0.0 1023111
15 мая, сб
сб1501:00+5зюз255194 0.0 1022101
04:00+6зюз41151100 0.1 1021614
07:00+5юз61584100 1.1 1018955
10:00+10зюз71466100 0.0 1016771
13:00+18з61152100 0.1 10141812
16:00+12ссз3109090 1.1 1016490
19:00+9ссв335983 0.0 10191097
22:00